Location: Unspecified
(0.0000°N, 0.0000°E)
Time: 16:23:48
(UTC+00:00)

Envisat - Pass Details

Date: 07 May 2021
Orbit: 764 x 766 km, 98.1° (Epoch: 14 May)

Event Time Altitude Azimuth Distance (km) Brightness Sun altitude
Rises 04:54:02 0° 17° (NNE) 3,213 6.7 -14.9°
Reaches altitude 10° 04:56:20 10° 20° (NNE) 2,290 6.0 -14.4°
Maximum altitude 05:01:20 66° 102° (ESE) 833 3.4 -13.2°
Drops below altitude 10° 05:06:22 10° 184° (S) 2,301 5.3 -12.0°
Sets 05:08:41 0° 186° (S) 3,229 6.0 -11.5°
